Location: Newark
(42.8481°N, 0.4872°E)
Time: 00:27:10
(UTC+00:00)

Transit 2A - Pass Details

Date: 30 October 2020
Orbit: 595 x 963 km, 66.7° (Epoch: 03 December)

Event Time Altitude Azimuth Distance (km) Brightness Sun altitude
Rises 02:08:19 0° 251° (WSW) 3,638 - -47.2°
Reaches altitude 10° 02:11:24 10° 265° (W) 2,699 - -46.8°
Maximum altitude 02:16:29 24° 318° (NW) 1,846 - -46.0°
Drops below altitude 10° 02:21:27 10° 11° (N) 2,635 - -45.2°
Exits shadow 02:21:52 - 14° (NNE) 2,749 9.2 -45.1°
Sets 02:24:27 0° 25° (NNE) 3,534 10.0 -44.7°
